weather.gov     
National Weather Service

Regional Weather Roundup
NWS Homepage
This page is being discontinued on March 12, 2014.
The same data is available at this site. Please update your bookmarks.
Thank you, and we apologize for the inconvenience.
Please send an email to SR-SRH.Webmaster@noaa.gov with any concerns.


Current Version
Previous Version:    01  02  03  04  05  06  07  08  09  10  11  12  13  14  15  16  17  18  19  20  21  22  23  24  25  26  27  28  29  30  
   31  32  33  34  35  36  37  38  39  40  41  42  43  44  45  46  47  48  49  50  51  52  53  54  
[Printable]
625
ASUS44 KOUN 251410
RWROK

WEATHER ROUNDUP FOR OKLAHOMA
NATIONAL WEATHER SERVICE NORMAN OK
800 AM CST SUN JAN 25 2015

NOTE: "FAIR" INDICATES FEW OR NO CLOUDS BELOW 12,000 FEET WITH NO
      SIGNIFICANT WEATHER AND/OR OBSTRUCTIONS TO VISIBILITY.

OKZ001>007-009>012-014-015-017-251500-
NORTHWEST OKLAHOMA AND THE PANHANDLE

CITY           SKY/WX    TMP DP  RH WIND       PRES   REMARKS
GAGE           CLEAR     36  27  69 W13       30.08R WCI  27
ENID/WOODRING  CLEAR     46  30  53 NW21G29   29.95R
$$

OKZ016-021>023-033>039-044-045-251500-
SOUTHWEST OKLAHOMA

CITY           SKY/WX    TMP DP  RH WIND       PRES   REMARKS
LAWTON/REGL    CLEAR     44  31  60 W8        30.05R
LAWTON/FT SILL CLEAR     46  32  58 NW8       30.03R
FREDERICK      CLEAR     47  31  53 NW22      30.05R
CLINTON        CLEAR     42  30  62 W16       30.08R
HOBART         CLEAR     36  31  82 W12       30.08R WCI  28
ALTUS AFB      CLEAR     43  31  63 NW15      30.09R
$$

OKZ018>020-024>031-251500-
CENTRAL OKLAHOMA

CITY           SKY/WX    TMP DP  RH WIND       PRES   REMARKS
OKLAHOMA CITY  PTCLDY    49  29  46 NW18      29.97R
OKC/WILEY POST CLEAR     48  30  49 NW13      29.99R
OKC/TINKER AFB CLEAR     48  30  49 NW17G25   29.96R
STILLWATER     CLEAR     47  30  51 NW14G25   29.92R
GUTHRIE        CLEAR     45  30  55 NW12      29.96R
$$

OKZ008-013-054>072-251500-
NORTHEAST OKLAHOMA

CITY           SKY/WX    TMP DP  RH WIND       PRES   REMARKS
TULSA          PTCLDY    50  33  52 NW22G32   29.85R
TULSA/JONES    CLEAR     50  32  50 NW10G23   29.87R
PONCA CITY     CLEAR     47  30  51 NW18G29   29.90R
BARTLESVILLE   PTCLDY    48  34  58 NW8G20    29.85R
MUSKOGEE       CLEAR     48  33  56 W13       29.87R
$$

OKZ032-040>043-046>053-073>077-251500-
SOUTH CENTRAL/SOUTHEAST OKLAHOMA

CITY           SKY/WX    TMP DP  RH WIND       PRES   REMARKS
ARDMORE/DWNTWN CLEAR     46  36  66 N5        29.99R
MCALESTER      PTCLDY    48  35  60 NW7       29.90R
$$





U.S. Dept. of Commerce
NOAA National Weather Service
1325 East West Highway
Silver Spring, MD 20910
E-mail: w-nws.webmaster@noaa.gov
Page last modified: May 16, 2007
NATIONAL WEATHER SERVICE: for Safety, for Work, for Fun - FOR LIFE